Flag for Kenya

Past Weather in Nairobi, Kenya — Yesterday and Last 2 Weeks

Now
66 °F

Passing clouds.


Feels Like: 66 °F
Forecast: 79 / 56 °F
Wind: 8 mph from Northeast

Location: Nairobi / Wilson
Current Time: Sep 20, 2020 at 9:14:22 pm
Latest Report: Sep 20, 2020 at 8:00 pm
Visibility: N/A
Pressure30.12 "Hg(24.75 "Hg at 1680m altitude)
Humidity: 68%
Dew Point: 55 °F
Location of NairobiLocation

Past Weather in Nairobi — Graph

°F

Nairobi Temperature Yesterday

Maximum temperature yesterday: 75 °F (at 4:00 pm)
Minimum temperature yesterday: 59 °F (at 6:00 am)
Average temperature yesterday: 67 °F

High & Low Weather Summary for the Past Weeks

 TemperatureHumidityPressure
High84 °F (Sep 17, 2:00 pm)100% (Sep 6, 12:00 am)30.27 "Hg (Sep 6, 12:00 am)
Low52 °F (Sep 10, 4:00 am)28% (Sep 13, 4:00 pm)30.04 "Hg (Sep 6, 3:00 pm)
Average66 °F71%30.16 "Hg
* Reported Sep 5 8:00 pm — Sep 20 8:00 pm, Nairobi. Weather by CustomWeather, © 2020

Note: Actual official high and low records may vary slightly from our data, if they occured in-between our weather recording intervals... More about our weather records

Nairobi Weather History for the Previous 24 Hours

Scroll right to see more
 ConditionsComfort  
Time TempWeatherWind HumidityBarometerVisibility
8:00 pm
Sun, Sep 20
66 °FPassing clouds.8 mph68%30.12 "HgN/A
7:00 pm66 °FPassing clouds.12 mph68%30.09 "HgN/A
6:00 pm70 °FPartly sunny.9 mph60%30.09 "HgN/A
5:00 pm70 °FPartly sunny.12 mph60%30.09 "HgN/A
4:00 pm72 °FPartly sunny.6 mph57%30.09 "HgN/A
3:00 pm70 °FPartly sunny.6 mph60%30.12 "HgN/A
2:00 pm70 °FPartly sunny.7 mph60%30.15 "HgN/A
12:00 pm64 °FPartly sunny.7 mph73%30.21 "HgN/A
11:00 am64 °FBroken clouds.No wind73%30.21 "HgN/A
10:00 am63 °FBroken clouds.No wind77%30.21 "HgN/A
9:00 am63 °FBroken clouds.No wind83%30.21 "HgN/A
8:00 am61 °FBroken clouds.5 mph83%30.18 "HgN/A
7:00 am61 °FPartly sunny.No wind83%30.18 "HgN/A
6:00 am59 °FPassing clouds.No wind88%30.15 "HgN/A
5:00 am59 °FPassing clouds.No wind88%30.15 "HgN/A
4:00 am59 °FPassing clouds.No wind88%30.12 "HgN/A
12:00 am63 °FClear.6 mph73%30.15 "Hg10 mi
11:00 pm
Sat, Sep 19
61 °FClear.No wind77%30.15 "Hg10 mi
10:00 pm63 °FClear.No wind77%30.15 "Hg10 mi
9:00 pm66 °FPassing clouds.8 mph64%30.12 "HgN/A
Weather by CustomWeather, © 2020

See weather overview